Oscoda, MI

5:39 AM EDT on May 23, 2018 (GMT -0400)
Oscoda-Wurtsmith

Weather History for KOSC - January, 2013

Change the Weather History Date:

Friday, January 18, 2013

  Actual Average Record
Temperature  
Mean Temperature 16 °F -  
Max Temperature 32 °F 24 °F 39 °F (1999)
Min Temperature 1 °F 9 °F -9 °F (1997)
Degree Days  
Heating Degree Days 48    
Moisture  
Dew Point 11 °F    
Average Humidity 79    
Maximum Humidity 88    
Minimum Humidity 64    
Precipitation  
Precipitation 0.00 in - - ()
Sea Level Pressure  
Sea Level Pressure 30.14 in    
Wind  
Wind Speed 10 mph (SSW)    
Max Wind Speed 20 mph    
Max Gust Speed 28 mph    
Visibility 9 miles    
Events Snow    
Averages and records for this station are not official NWS values.
T = Trace of Precipitation, MM = Missing Value Source: NWS Daily Summary

Daily Weather History Graph

Daily Weather History Graph

Search for Another Location

Airport or City:

Astronomy

Jan. 18, 2013 Rise Set
Actual Time 8:04 AM EST 5:24 PM EST
Civil Twilight 7:32 AM EST 5:56 PM EST
Nautical Twilight 6:56 AM EST 6:31 PM EST
Astronomical Twilight 6:21 AM EST 7:06 PM EST
Moon 11:22 AM EST (1/18) 12:31 AM EST (1/18)
Length of Visible Light 10h 23m
Length of Day
9h 19m
Waxing Crescent, 47% of the Moon is Illuminated
Jan 18
Waxing Crescent
Jan 18
First Quarter
Jan 26
Full
Feb 3
Last Quarter
Feb 10
New

Hourly Weather History & Observations

Time (EST) Temp. Windchill Dew Point Humidity Pressure Visibility Wind Dir Wind Speed Gust Speed Precip Events Conditions
12:13 AM 2.1 °F -7.4 °F -0.9 °F 87% 30.28 in 10.0 mi West 4.6 mph - N/A   Clear
12:34 AM 2.3 °F -8.8 °F -0.6 °F 88% 30.28 in 10.0 mi West 5.8 mph - N/A   Clear
12:54 AM 3.4 °F -5.9 °F 0.1 °F 86% 30.28 in 10.0 mi WSW 4.6 mph - N/A   Clear
1:13 AM 3.9 °F -3.4 °F 1.0 °F 88% 30.29 in 10.0 mi WSW 3.5 mph - N/A   Clear
1:34 AM 2.7 °F - -0.9 °F 85% 30.30 in 10.0 mi North - - N/A   Clear
1:54 AM 3.0 °F - -0.4 °F 86% 30.30 in 10.0 mi North - - N/A   Clear
2:13 AM 4.5 °F - 0.5 °F 84% 30.31 in 10.0 mi North - - N/A   Clear
2:34 AM 4.6 °F - 0.5 °F 83% 30.32 in 10.0 mi North - - N/A   Clear
2:54 AM 3.6 °F - -0.4 °F 84% 30.32 in 10.0 mi North - - N/A   Clear
3:13 AM 3.7 °F - -0.2 °F 84% 30.33 in 10.0 mi North - - N/A   Clear
3:34 AM 4.6 °F - 0.9 °F 84% 30.34 in 10.0 mi North - - N/A   Clear
3:54 AM 3.7 °F - -0.4 °F 83% 30.33 in 10.0 mi North - - N/A   Clear
4:13 AM 1.8 °F -13.1 °F -2.2 °F 83% 30.34 in 10.0 mi WSW 9.2 mph - N/A   Clear
4:34 AM 3.7 °F -8.4 °F -0.4 °F 83% 30.34 in 10.0 mi West 6.9 mph - N/A   Clear
4:54 AM 1.4 °F -12.5 °F -2.7 °F 83% 30.34 in 10.0 mi WSW 8.1 mph - N/A   Clear
5:13 AM 3.7 °F - 0.3 °F 86% 30.34 in 10.0 mi North - - N/A   Clear
5:34 AM 3.4 °F - -0.4 °F 84% 30.34 in 10.0 mi North - - N/A   Clear
5:54 AM 3.0 °F - -0.4 °F 86% 30.34 in 10.0 mi North - - N/A   Clear
6:13 AM 1.8 °F - -1.3 °F 87% 30.34 in 10.0 mi North - - N/A   Clear
6:34 AM 1.4 °F - -1.8 °F 86% 30.34 in 10.0 mi North - - N/A   Clear
6:54 AM 3.2 °F - -0.4 °F 85% 30.35 in 10.0 mi North - - N/A   Clear
7:13 AM 2.8 °F - -0.8 °F 85% 30.36 in 10.0 mi North - - N/A   Clear
7:34 AM 3.0 °F - -0.9 °F 84% 30.35 in 10.0 mi North - - N/A   Clear
7:53 AM 3.9 °F - -0.0 °F 84% 30.35 in 10.0 mi North - - N/A   Clear
8:14 AM 5.9 °F -4.5 °F 1.8 °F 83% 30.34 in 10.0 mi SW 5.8 mph - N/A   Clear
8:34 AM 5.9 °F -5.8 °F 2.1 °F 84% 30.34 in 10.0 mi SW 6.9 mph - N/A   Clear
8:53 AM 6.4 °F -3.9 °F 2.3 °F 83% 30.34 in 10.0 mi SW 5.8 mph - N/A   Clear
9:14 AM 7.5 °F -2.6 °F 3.9 °F 85% 30.34 in 10.0 mi SW 5.8 mph - N/A   Clear
9:34 AM 9.1 °F -1.9 °F 4.8 °F 83% 30.33 in 10.0 mi SW 6.9 mph - N/A   Scattered Clouds
9:53 AM 10.6 °F -1.3 °F 5.7 °F 81% 30.34 in 10.0 mi SW 8.1 mph - N/A   Scattered Clouds
10:14 AM 12.2 °F -1.0 °F 6.6 °F 78% 30.34 in 10.0 mi SW 10.4 mph - N/A   Mostly Cloudy
10:34 AM 13.6 °F 0.7 °F 6.3 °F 72% 30.34 in 10.0 mi SW 10.4 mph - N/A   Mostly Cloudy
10:53 AM 14.7 °F 2.9 °F 7.2 °F 72% 30.33 in 10.0 mi SSW 9.2 mph - N/A   Mostly Cloudy
11:14 AM 15.3 °F 2.0 °F 6.1 °F 67% 30.31 in 10.0 mi SW 11.5 mph 16.1 mph N/A   Mostly Cloudy
11:34 AM 16.2 °F 3.9 °F 6.3 °F 65% 30.28 in 10.0 mi SSW 10.4 mph - N/A   Overcast
11:53 AM 17.6 °F 4.3 °F 7.2 °F 64% 30.26 in 10.0 mi SSW 12.7 mph 16.1 mph N/A   Overcast
12:14 PM 18.5 °F 4.9 °F 9.5 °F 68% 30.23 in 10.0 mi SSW 13.8 mph 19.6 mph N/A   Overcast
12:33 PM 18.7 °F 2.7 °F 10.6 °F 71% 30.21 in 5.0 mi SSW 19.6 mph 24.2 mph N/A   Haze
12:53 PM 18.9 °F 3.8 °F 11.7 °F 74% 30.19 in 5.0 mi SSW 17.3 mph 24.2 mph N/A Snow Light Snow
1:14 PM 19.0 °F 5.0 °F 12.4 °F 75% 30.16 in 5.0 mi SSW 15.0 mph 23.0 mph N/A Snow Light Snow
1:34 PM 19.4 °F 6.6 °F 14.4 °F 81% 30.14 in 2.5 mi South 12.7 mph - N/A Snow Light Snow
1:53 PM 19.8 °F 7.7 °F 15.4 °F 83% 30.12 in 1.8 mi South 11.5 mph 19.6 mph N/A Snow Light Snow
2:14 PM 20.1 °F 8.8 °F 16.5 °F 86% 30.09 in 2.0 mi South 10.4 mph 18.4 mph N/A Snow Light Snow
2:33 PM 21.0 °F 8.1 °F 17.1 °F 85% 30.06 in 3.0 mi South 13.8 mph 19.6 mph N/A Snow Light Snow
2:54 PM 22.1 °F 9.5 °F 17.6 °F 83% 30.04 in 10.0 mi South 13.8 mph 20.7 mph N/A Snow Light Snow
3:14 PM 23.0 °F 10.6 °F 18.5 °F 83% 30.03 in 10.0 mi SSW 13.8 mph 21.9 mph N/A   Overcast
3:33 PM 23.7 °F 10.1 °F 19.0 °F 82% 30.01 in 10.0 mi SSW 17.3 mph 21.9 mph N/A   Overcast
3:54 PM 24.4 °F 11.5 °F 19.2 °F 81% 30.00 in 10.0 mi South 16.1 mph 23.0 mph N/A   Overcast
4:14 PM 25.2 °F 13.3 °F 19.4 °F 79% 29.99 in 10.0 mi South 13.8 mph 24.2 mph N/A   Overcast
4:33 PM 25.7 °F 15.7 °F 20.1 °F 79% 29.98 in 10.0 mi South 10.4 mph 18.4 mph N/A   Overcast
4:54 PM 26.2 °F 15.2 °F 20.3 °F 78% 29.96 in 10.0 mi South 12.7 mph 19.6 mph N/A   Overcast
5:14 PM 26.4 °F 17.3 °F 20.3 °F 78% 29.96 in 10.0 mi South 9.2 mph - N/A   Overcast
5:33 PM 26.6 °F 18.2 °F 20.7 °F 78% 29.94 in 10.0 mi South 8.1 mph - N/A   Overcast
5:54 PM 26.6 °F 20.0 °F 21.0 °F 79% 29.93 in 10.0 mi South 5.8 mph - N/A   Overcast
6:14 PM 27.1 °F 19.7 °F 21.2 °F 78% 29.92 in 10.0 mi South 6.9 mph - N/A   Overcast
6:33 PM 27.5 °F 20.2 °F 21.0 °F 77% 29.91 in 10.0 mi South 6.9 mph - N/A   Overcast
6:54 PM 28.4 °F 20.4 °F 21.0 °F 74% 29.90 in 10.0 mi SSW 8.1 mph - N/A   Mostly Cloudy
7:14 PM 29.3 °F 19.6 °F 21.2 °F 72% 29.90 in 10.0 mi SSW 11.5 mph 17.3 mph N/A   Scattered Clouds
7:33 PM 29.8 °F 20.3 °F 21.7 °F 72% 29.90 in 10.0 mi SSW 11.5 mph 17.3 mph N/A   Clear
7:54 PM 30.2 °F 20.8 °F 22.1 °F 72% 29.89 in 10.0 mi SSW 11.5 mph 17.3 mph N/A   Clear
8:14 PM 30.9 °F 21.7 °F 22.8 °F 72% 29.87 in 10.0 mi SSW 11.5 mph - N/A   Scattered Clouds
8:33 PM 31.5 °F 20.5 °F 23.2 °F 71% 29.86 in 10.0 mi SSW 16.1 mph 21.9 mph N/A   Mostly Cloudy
8:54 PM 32.0 °F 20.8 °F 23.5 °F 71% 29.85 in 10.0 mi SSW 17.3 mph 23.0 mph N/A   Mostly Cloudy
9:14 PM 32.0 °F 20.8 °F 23.9 °F 72% 29.83 in 10.0 mi SSW 17.3 mph 23.0 mph N/A   Overcast
9:34 PM 32.0 °F 20.5 °F 24.4 °F 74% 29.82 in 10.0 mi SSW 18.4 mph 25.3 mph N/A   Mostly Cloudy
9:54 PM 32.5 °F 21.5 °F 24.6 °F 73% 29.81 in 10.0 mi SSW 17.3 mph 27.6 mph N/A   Overcast
10:14 PM 32.4 °F 21.3 °F 24.6 °F 73% 29.80 in 10.0 mi SSW 17.3 mph 23.0 mph N/A   Overcast
10:33 PM 32.4 °F 20.9 °F 24.8 °F 74% 29.79 in 10.0 mi SW 18.4 mph 23.0 mph N/A   Overcast
10:54 PM 32.5 °F 21.9 °F 24.8 °F 73% 29.79 in 10.0 mi SSW 16.1 mph 21.9 mph N/A   Overcast
11:13 PM 32.2 °F 21.1 °F 24.6 °F 74% 29.78 in 10.0 mi SSW 17.3 mph 23.0 mph N/A   Mostly Cloudy
11:34 PM 32.0 °F 21.6 °F 24.4 °F 74% 29.77 in 10.0 mi SSW 15.0 mph 21.9 mph N/A   Mostly Cloudy
11:54 PM 32.0 °F 20.8 °F 24.3 °F 73% 29.76 in 10.0 mi SSW 17.3 mph 23.0 mph N/A   Scattered Clouds